EZY4MA EGJJ-EGKK

Flight info

Callsign EZY4MA
Flight time 0h 38m
Altitude 23000
Route ORIST L982 VASUX
Aircraft A319/M-SDE3FGHIRWY/LB1

Departure

Time 2026-05-05 16:04
Airport Jersey Airport (EGJJ)

Arrival

Time 2026-05-05 16:42
Airport London Gatwick Airport (EGKK)
Time Latitude Longitude Altitude Speed Heading
2026-05-05 15:55 49.20493 -2.19732 281 ft 0 kts 352°
2026-05-05 15:58 49.20480 -2.19730 281 ft 3 kts 351°
2026-05-05 15:59 49.20460 -2.19723 281 ft 3 kts 336°
2026-05-05 15:59 49.20446 -2.19710 287 ft 3 kts 289°
2026-05-05 15:59 49.20444 -2.19698 286 ft 0 kts 264°
2026-05-05 16:01 49.20443 -2.19706 281 ft 2 kts 263°
2026-05-05 16:01 49.20439 -2.19773 281 ft 10 kts 264°
2026-05-05 16:01 49.20435 -2.19864 281 ft 10 kts 269°
2026-05-05 16:02 49.20486 -2.19920 281 ft 11 kts 347°
2026-05-05 16:02 49.20523 -2.20015 283 ft 12 kts 285°
2026-05-05 16:02 49.20550 -2.20153 282 ft 15 kts 287°
2026-05-05 16:02 49.20584 -2.20319 280 ft 18 kts 287°
2026-05-05 16:03 49.20619 -2.20510 280 ft 15 kts 285°
2026-05-05 16:03 49.20637 -2.20674 283 ft 16 kts 303°
2026-05-05 16:03 49.20708 -2.20629 281 ft 16 kts 83°
2026-05-05 16:03 49.20736 -2.20301 282 ft 72 kts 82°
2026-05-05 16:04 49.20839 -2.19073 495 ft 142 kts 82°
2026-05-05 16:04 49.20970 -2.17507 1484 ft 154 kts 77°
2026-05-05 16:04 49.21114 -2.15799 2211 ft 173 kts 78°
2026-05-05 16:04 49.21282 -2.13821 2743 ft 203 kts 78°
2026-05-05 16:05 49.21483 -2.11653 3789 ft 207 kts 77°
2026-05-05 16:05 49.21687 -2.09449 4910 ft 212 kts 77°
2026-05-05 16:05 49.21911 -2.07189 5911 ft 217 kts 70°
2026-05-05 16:05 49.22710 -2.05276 6838 ft 217 kts 35°
2026-05-05 16:06 49.24107 -2.04485 7847 ft 220 kts
2026-05-05 16:06 49.25650 -2.04432 8940 ft 223 kts
2026-05-05 16:06 49.27237 -2.04361 9825 ft 238 kts
2026-05-05 16:06 49.28978 -2.04268 10403 ft 263 kts
2026-05-05 16:07 49.30877 -2.04165 11096 ft 281 kts
2026-05-05 16:07 49.32855 -2.04058 12084 ft 287 kts
2026-05-05 16:07 49.34867 -2.03953 13147 ft 292 kts
2026-05-05 16:07 49.36919 -2.03849 14082 ft 298 kts
2026-05-05 16:08 49.39013 -2.03741 14983 ft 303 kts
2026-05-05 16:08 49.41104 -2.03631 15918 ft 306 kts
2026-05-05 16:08 49.43249 -2.03520 16829 ft 311 kts
2026-05-05 16:08 49.45427 -2.03404 17715 ft 316 kts
2026-05-05 16:09 49.45853 -2.03381 17898 ft 316 kts
2026-05-05 16:09 49.48074 -2.03243 18735 ft 320 kts
2026-05-05 16:09 49.50314 -2.03117 19532 ft 324 kts
2026-05-05 16:09 49.52584 -2.03002 20303 ft 329 kts
2026-05-05 16:10 49.54881 -2.02890 21107 ft 332 kts
2026-05-05 16:10 49.57204 -2.02776 21903 ft 336 kts
2026-05-05 16:10 49.59556 -2.02658 22643 ft 340 kts
2026-05-05 16:10 49.61933 -2.02538 22911 ft 344 kts
2026-05-05 16:11 49.64410 -2.02407 22971 ft 368 kts
2026-05-05 16:11 49.72295 -2.01992 22971 ft 381 kts
2026-05-05 16:12 49.74949 -2.01852 22969 ft 382 kts
2026-05-05 16:12 49.80146 -2.00469 22965 ft 382 kts 23°
2026-05-05 16:13 49.87223 -1.94819 22956 ft 382 kts 27°
2026-05-05 16:13 49.89577 -1.92919 22952 ft 381 kts 27°
2026-05-05 16:13 49.91928 -1.91021 22945 ft 381 kts 27°
2026-05-05 16:14 49.96639 -1.87210 22934 ft 381 kts 27°
2026-05-05 16:14 50.01355 -1.83415 22930 ft 382 kts 27°
2026-05-05 16:15 50.06096 -1.79664 22923 ft 383 kts 27°
2026-05-05 16:15 50.10853 -1.75908 22920 ft 384 kts 27°
2026-05-05 16:16 50.15188 -1.71081 22928 ft 385 kts 39°
2026-05-05 16:16 50.19307 -1.65735 22922 ft 386 kts 39°
2026-05-05 16:17 50.23443 -1.60369 22922 ft 386 kts 39°
2026-05-05 16:17 50.25510 -1.57683 22930 ft 387 kts 39°
2026-05-05 16:18 50.29647 -1.52312 22931 ft 387 kts 39°
2026-05-05 16:18 50.31722 -1.49629 22933 ft 387 kts 39°
2026-05-05 16:18 50.35873 -1.44256 22933 ft 387 kts 39°
2026-05-05 16:19 50.37942 -1.41564 22935 ft 387 kts 39°
2026-05-05 16:19 50.40014 -1.38864 22939 ft 387 kts 39°
2026-05-05 16:19 50.44162 -1.33458 22652 ft 387 kts 39°
2026-05-05 16:20 50.48269 -1.28087 21724 ft 381 kts 39°
2026-05-05 16:20 50.52309 -1.22797 20731 ft 375 kts 39°
2026-05-05 16:21 50.56268 -1.17595 19752 ft 368 kts 39°
2026-05-05 16:22 50.62097 -1.09924 18308 ft 360 kts 40°
2026-05-05 16:22 50.65871 -1.04849 17335 ft 354 kts 45°
2026-05-05 16:23 50.69009 -0.98914 16425 ft 349 kts 50°
2026-05-05 16:23 50.70532 -0.95971 15992 ft 345 kts 51°
2026-05-05 16:23 50.73445 -0.90357 15126 ft 317 kts 51°
2026-05-05 16:24 50.74809 -0.87722 14766 ft 304 kts 51°
2026-05-05 16:24 50.76140 -0.85150 14383 ft 302 kts 51°
2026-05-05 16:24 50.78786 -0.80016 13610 ft 300 kts 51°
2026-05-05 16:25 50.80087 -0.77444 13205 ft 298 kts 54°
2026-05-05 16:25 50.81597 -0.71453 12458 ft 297 kts 79°
2026-05-05 16:25 50.81962 -0.68253 12079 ft 294 kts 79°
2026-05-05 16:26 50.82698 -0.61917 11337 ft 291 kts 79°
2026-05-05 16:26 50.83425 -0.55646 10606 ft 289 kts 78°
2026-05-05 16:27 50.83787 -0.52523 10245 ft 288 kts 79°
2026-05-05 16:27 50.84147 -0.49413 9971 ft 287 kts 79°
2026-05-05 16:27 50.84505 -0.46300 9938 ft 288 kts 79°
2026-05-05 16:27 50.84862 -0.43187 9683 ft 287 kts 79°
2026-05-05 16:28 50.85215 -0.40089 9417 ft 286 kts 78°
2026-05-05 16:28 50.85565 -0.37002 9154 ft 284 kts 78°
2026-05-05 16:28 50.85914 -0.33922 8887 ft 283 kts 78°
2026-05-05 16:28 50.86259 -0.30870 8626 ft 281 kts 78°
2026-05-05 16:29 50.86603 -0.27833 8362 ft 279 kts 78°
2026-05-05 16:29 50.86943 -0.24832 8125 ft 278 kts 77°
2026-05-05 16:29 50.87285 -0.21812 7953 ft 277 kts 77°
2026-05-05 16:29 50.87622 -0.18822 7946 ft 276 kts 78°
2026-05-05 16:30 50.87951 -0.15889 7945 ft 261 kts 79°
2026-05-05 16:30 50.88398 -0.13207 7944 ft 244 kts 66°
2026-05-05 16:30 50.89102 -0.10791 7945 ft 242 kts 62°
2026-05-05 16:30 50.89861 -0.08406 7944 ft 243 kts 62°
2026-05-05 16:31 50.90635 -0.06022 7944 ft 243 kts 62°
2026-05-05 16:31 50.91403 -0.03637 7944 ft 243 kts 61°
2026-05-05 16:31 50.92172 -0.01252 7946 ft 243 kts 60°
2026-05-05 16:31 50.92947 0.01136 7940 ft 243 kts 60°
2026-05-05 16:32 50.94018 0.03145 7952 ft 239 kts 32°
2026-05-05 16:32 50.95568 0.03959 7962 ft 237 kts
2026-05-05 16:32 50.97158 0.03336 7968 ft 239 kts 329°
2026-05-05 16:32 50.98306 0.01452 7967 ft 242 kts 299°
2026-05-05 16:33 50.98736 -0.01130 7932 ft 245 kts 278°
2026-05-05 16:33 50.98923 -0.03832 7757 ft 246 kts 277°
2026-05-05 16:33 50.99073 -0.06529 7581 ft 245 kts 276°
2026-05-05 16:33 50.99223 -0.09220 7405 ft 244 kts 276°
2026-05-05 16:34 50.99372 -0.11900 7229 ft 243 kts 277°
2026-05-05 16:34 50.99496 -0.14575 7066 ft 243 kts 276°
2026-05-05 16:34 50.99618 -0.17246 6879 ft 242 kts 276°
2026-05-05 16:34 50.99744 -0.19909 6709 ft 241 kts 275°
2026-05-05 16:35 50.99862 -0.22564 6541 ft 241 kts 276°
2026-05-05 16:35 50.99966 -0.25210 6318 ft 240 kts 276°
2026-05-05 16:35 51.00066 -0.27849 6055 ft 239 kts 277°
2026-05-05 16:35 51.00514 -0.30354 5770 ft 236 kts 298°
2026-05-05 16:36 51.01277 -0.32646 5430 ft 233 kts 301°
2026-05-05 16:36 51.02051 -0.34904 5103 ft 231 kts 301°
2026-05-05 16:36 51.02815 -0.37140 4771 ft 229 kts 301°
2026-05-05 16:36 51.03598 -0.39287 4417 ft 219 kts 312°
2026-05-05 16:37 51.04781 -0.40652 4080 ft 207 kts 338°
2026-05-05 16:37 51.06109 -0.41386 3795 ft 197 kts 348°
2026-05-05 16:37 51.07417 -0.41859 3455 ft 190 kts 349°
2026-05-05 16:37 51.08702 -0.42054 3120 ft 183 kts
2026-05-05 16:38 51.09925 -0.41707 2855 ft 173 kts 19°
2026-05-05 16:38 51.10929 -0.40845 2744 ft 157 kts 38°
2026-05-05 16:38 51.11662 -0.39632 2595 ft 150 kts 54°
2026-05-05 16:38 51.12132 -0.38164 2439 ft 149 kts 70°
2026-05-05 16:39 51.12372 -0.36567 2259 ft 148 kts 75°
2026-05-05 16:39 51.12598 -0.34963 2054 ft 148 kts 75°
2026-05-05 16:39 51.12748 -0.33894 1926 ft 143 kts 75°
2026-05-05 16:39 51.12949 -0.32445 1745 ft 125 kts 75°
2026-05-05 16:40 51.13128 -0.31131 1544 ft 119 kts 75°
2026-05-05 16:40 51.13302 -0.29860 1350 ft 115 kts 75°
2026-05-05 16:40 51.13480 -0.28628 1227 ft 114 kts 76°
2026-05-05 16:40 51.13661 -0.27403 1058 ft 112 kts 75°
2026-05-05 16:41 51.13834 -0.26179 904 ft 115 kts 77°
2026-05-05 16:41 51.13994 -0.24947 780 ft 113 kts 77°
2026-05-05 16:41 51.14169 -0.23707 592 ft 114 kts 78°
2026-05-05 16:41 51.14340 -0.22477 460 ft 113 kts 78°
2026-05-05 16:42 51.14511 -0.21243 307 ft 114 kts 78°
2026-05-05 16:42 51.14678 -0.20036 214 ft 105 kts 79°
2026-05-05 16:42 51.14806 -0.19103 211 ft 63 kts 77°
2026-05-05 16:42 51.14893 -0.18594 210 ft 33 kts 50°
2026-05-05 16:43 51.15020 -0.18361 205 ft 23 kts 51°
2026-05-05 16:43 51.15081 -0.18242 208 ft 7 kts 50°
2026-05-05 16:43 51.15110 -0.18182 214 ft 6 kts 50°
2026-05-05 16:43 51.15160 -0.18200 205 ft 11 kts 343°
2026-05-05 16:44 51.15247 -0.18231 213 ft 14 kts 347°
2026-05-05 16:44 51.15352 -0.18268 208 ft 16 kts 347°
2026-05-05 16:44 51.15471 -0.18310 205 ft 19 kts 348°
2026-05-05 16:44 51.15606 -0.18351 205 ft 21 kts 356°
2026-05-05 16:45 51.15667 -0.18203 210 ft 17 kts 78°
2026-05-05 16:45 51.15716 -0.18043 207 ft 14 kts
2026-05-05 16:45 51.15803 -0.18054 208 ft 10 kts 40°
2026-05-05 16:45 51.15817 -0.17959 205 ft 6 kts 79°
2026-05-05 16:46 51.15817 -0.17957 205 ft 0 kts 79°